Temp_Advection
nan nan nan nan nan nan nan nan nan nan nan nan nan nan nan nan nan nan nan nan nan nan nan nan nan nan nan nan nan nan nan nan nan nan nan nan nan nan
nan 0 0 0 0 0 0 0 0 -0 0 0 -0 -0 -0 -0 -0 -0 -0 -0 -0 -1 -1 -0 1 0 0 -0 0 0 0 0 0 -0 -0 0 0 nan
nan 0 0 0 1 0 0 0 0 0 -0 -0 -0 -0 -0 0 0 -0 -0 -0 -0 -0 -0 -0 -0 -0 -0 0 0 0 1 1 -0 0 -0 0 0 nan
nan 0 1 0 1 0 -0 -0 0 0 0 -0 0 0 0 0 -0 -0 -0 -0 -0 -0 -0 0 -1 -1 -0 0 0 0 0 0 0 0 0 0 0 nan
nan 0 1 1 1 0 0 -0 0 0 0 -0 0 0 -0 -0 -0 -0 -0 -0 -0 -0 0 0 -1 -1 0 0 1 -0 0 0 0 0 0 -0 0 nan
nan 0 1 1 1 0 -0 -0 0 0 0 -0 -0 -0 -0 -0 -0 -0 -0 -0 -0 -0 0 0 0 0 1 1 0 -0 -0 -0 0 0 0 0 0 nan
nan 0 0 1 1 0 -0 0 0 0 -0 -0 -0 -0 -0 0 -0 -0 -0 -0 -0 0 -0 0 1 1 0 1 0 0 -0 -1 0 0 0 0 0 nan
nan 0 0 0 0 -0 0 0 0 0 -0 -0 -0 -0 0 0 -0 -0 -0 -0 -0 0 0 0 1 0 0 0 1 1 1 0 0 0 -0 0 0 nan
nan -0 -0 -0 0 -0 0 0 0 -0 -0 -0 -0 -0 -0 -0 -0 -0 -0 -0 -0 0 0 1 0 1 0 -0 1 1 1 1 0 0 0 0 0 nan
nan 0 0 0 -0 -0 0 -0 0 -0 -0 -0 -1 -0 -0 -0 -0 -0 -0 -0 0 0 0 -0 0 0 0 0 0 0 0 0 0 0 0 0 -0 nan
nan 0 0 0 -0 0 -0 -0 -0 -0 -1 -0 -0 -0 -0 -0 -0 -0 -0 -0 -1 -0 0 -0 -0 -0 0 1 0 0 0 0 0 0 0 0 0 nan
nan 0 -0 -0 0 0 -0 -1 -1 -1 -1 -0 0 0 0 0 -0 -0 -0 -0 -1 -1 0 -1 0 -0 -0 0 -0 0 0 0 0 0 0 0 0 nan
nan -0 0 -0 -0 0 -0 -0 -0 -0 0 0 -0 0 0 -0 -0 -0 -0 0 1 -1 0 0 -0 -1 -1 0 0 0 0 0 0 0 -0 -0 0 nan
nan -0 0 0 0 0 -0 0 0 0 -0 -0 -0 0 -0 -0 -0 -0 -0 0 0 -0 -0 1 -1 -0 -1 -1 -0 0 0 0 0 0 0 0 0 nan
nan 0 -0 0 -0 -0 -0 -0 -0 -0 -1 -0 -0 -0 -0 -0 0 0 -0 -0 0 1 0 1 0 1 0 -1 -1 -0 0 0 0 0 0 0 0 nan
nan 0 0 0 -0 -0 -0 -0 -0 -0 -0 0 -0 -0 -0 -0 -0 -0 -0 -0 -0 0 0 0 1 0 1 -0 0 -0 -0 -0 0 0 0 0 -0 nan
nan -0 -0 -0 0 0 -0 -0 -0 0 0 -0 -0 -0 -0 -0 -0 -0 -0 -0 -0 0 -0 1 0 0 1 1 1 0 0 0 -0 -0 -0 -0 -0 nan
nan -0 -0 -0 -0 -0 -0 -0 0 -0 -0 -0 -0 -0 -0 -0 -0 0 -0 0 0 -0 0 -0 0 0 0 1 1 0 0 0 -0 -0 -0 0 0 nan
nan -1 -1 -1 -0 -1 -0 -0 -0 -1 -1 -0 -0 -0 -0 -0 -0 -0 0 -0 -0 0 0 -0 0 0 -0 -1 0 0 0 0 -0 -0 0 0 0 nan
nan -0 -0 -0 -0 -0 -0 -0 -1 -0 -0 -0 -0 -0 -0 -0 -0 -0 0 0 0 0 -0 0 0 0 0 -0 -0 -0 0 0 0 0 0 0 0 nan
nan -0 -1 -0 -0 -0 -0 -0 -0 -0 -0 -0 -0 -0 -0 -0 -0 -0 -0 0 0 -0 -0 -0 0 0 0 0 -0 -1 -0 0 0 0 0 0 0 nan
nan 0 -0 -0 -0 -0 -0 -0 -0 -0 -0 -0 -0 -0 -0 -0 -0 -0 -0 0 0 -0 -0 -0 0 0 0 0 -0 0 0 0 0 0 0 0 1 nan
nan nan nan nan nan nan nan nan nan nan nan nan nan nan nan nan nan nan nan nan nan nan nan nan nan nan nan nan nan nan nan nan nan nan nan nan nan nan
Wind_Speed
34 32 35 29 29 23 25 24 21 13 6 9 7 5 10 10 8 10 11 12 13 15 17 24 41 37 37 37 33 31 29 24 23 24 21 20 25 22
35 34 33 32 31 24 25 24 20 17 8 5 6 5 11 9 10 12 12 10 9 12 15 25 42 34 31 42 34 32 30 26 27 24 22 21 24 22
32 36 34 30 29 28 26 25 22 23 16 6 2 11 15 10 10 8 12 13 11 10 14 27 39 31 28 42 34 34 30 28 26 25 25 23 21 20
31 32 37 35 29 26 26 26 21 27 18 8 5 12 16 8 9 7 12 9 8 10 17 30 33 29 30 34 31 33 27 28 27 26 25 23 22 20
29 29 36 35 36 31 28 26 23 22 21 9 7 8 11 13 9 12 9 5 8 12 23 32 30 27 30 32 34 31 32 28 27 25 24 23 22 21
30 39 31 33 33 34 33 28 24 21 23 12 6 9 12 16 9 13 10 9 9 16 30 30 26 23 27 33 30 25 27 28 25 26 25 24 23 20
25 29 35 40 31 34 34 25 25 21 24 16 8 13 14 14 13 13 9 8 14 23 29 27 27 31 34 33 33 31 29 28 28 27 25 24 22 20
19 19 27 33 42 29 30 26 26 23 24 17 17 16 13 14 13 14 10 10 16 27 25 25 37 39 33 32 27 29 29 33 28 28 26 22 20 16
18 25 24 29 34 38 30 29 25 22 23 19 16 18 15 13 15 14 11 19 23 27 32 37 42 40 37 32 32 32 32 32 29 28 26 23 18 15
19 19 24 28 32 41 34 32 28 25 24 20 20 18 14 17 17 11 14 21 30 29 34 38 39 38 36 33 36 37 32 31 29 27 24 22 18 16
20 21 21 26 35 38 33 33 31 30 26 24 25 14 15 14 12 14 22 30 34 36 44 44 37 37 34 40 36 32 30 28 27 24 22 19 16 14
19 17 21 27 32 37 34 35 34 32 28 23 14 14 15 15 10 16 24 37 43 41 37 45 46 43 43 38 36 34 30 26 23 22 19 18 15 10
23 17 25 31 30 35 31 33 32 31 26 19 11 13 16 16 12 19 23 30 38 40 40 39 47 48 42 40 39 37 30 28 25 24 20 15 10 11
21 24 30 34 34 31 32 29 30 26 22 15 6 12 16 17 16 23 23 24 31 36 35 44 51 44 45 44 43 34 33 27 28 24 18 19 17 15
28 28 33 30 30 28 29 26 25 24 17 16 11 13 15 16 18 27 24 25 23 30 38 43 38 37 44 47 43 37 34 33 28 23 18 19 16 17
27 28 29 31 30 27 22 26 21 20 19 18 15 14 16 20 23 18 22 28 27 27 33 38 30 38 40 39 32 34 34 29 27 22 20 18 17 14
27 26 29 30 28 21 24 25 21 20 18 15 18 15 21 24 18 23 24 28 31 35 37 36 40 40 38 36 32 35 33 28 26 22 20 18 19 17
30 30 28 26 20 21 25 26 20 18 18 19 13 16 24 21 19 24 20 30 35 38 39 40 41 40 35 32 32 31 30 25 24 21 20 18 18 18
26 25 24 22 19 22 24 20 22 20 19 14 18 18 22 20 16 27 31 33 29 24 33 37 35 32 34 36 33 32 30 23 24 21 19 17 12 11
21 20 21 20 24 22 20 20 18 15 16 21 19 19 21 23 25 25 22 29 27 31 38 33 29 30 31 35 31 32 27 23 20 20 20 17 14 11
20 24 21 20 21 20 18 17 13 14 17 20 21 17 20 23 27 29 32 32 28 32 31 27 26 24 28 25 26 28 24 20 17 17 16 14 13 12
19 18 23 20 18 15 14 13 12 14 17 19 19 20 21 22 25 24 24 25 29 29 28 26 26 25 25 25 20 25 28 23 21 19 18 16 15 11
22 19 18 15 16 16 14 13 12 15 16 19 20 20 20 23 25 22 23 21 26 26 24 23 22 22 21 20 19 21 24 23 22 21 18 16 15 12
Wind_Direction
236 232 228 223 224 224 226 228 233 226 238 205 237 200 187 209 210 210 222 233 243 230 215 200 183 186 193 186 192 192 184 183 176 167 165 164 167 162
219 226 225 225 222 221 218 221 225 225 217 70 224 221 195 205 218 231 232 235 218 205 203 194 184 189 188 187 192 191 188 185 170 166 163 164 169 169
220 212 216 214 215 220 218 217 214 225 231 258 251 201 189 204 216 249 235 209 209 200 199 187 184 190 189 189 195 182 184 174 169 163 168 171 170 169
213 197 205 208 208 207 218 220 212 220 224 248 120 194 193 198 203 248 184 178 178 202 189 177 183 187 198 196 194 179 177 164 164 169 172 175 175 175
213 199 200 203 211 213 209 216 216 215 214 237 167 190 204 197 213 194 192 226 195 188 174 172 184 191 182 188 190 175 174 164 168 173 177 171 169 165
222 221 209 197 202 211 217 219 211 208 207 221 196 190 215 194 213 190 188 194 200 176 163 169 182 188 179 181 162 152 175 161 170 177 171 166 166 168
217 221 220 214 201 198 211 206 208 200 203 203 191 199 190 195 207 187 193 208 209 172 162 172 170 159 163 159 166 166 165 170 178 174 174 171 170 175
190 199 202 207 205 203 207 211 201 196 198 192 185 191 200 216 213 184 198 218 171 174 172 161 175 169 163 167 173 177 173 171 180 176 170 174 172 180
188 190 184 188 194 200 195 197 191 198 190 183 196 197 201 202 198 191 214 171 172 176 172 162 163 157 165 168 174 173 166 171 179 171 171 171 168 174
175 171 186 186 184 194 191 196 192 197 190 191 201 198 207 178 181 212 185 182 166 176 176 161 168 159 167 174 175 163 163 178 174 168 167 165 167 172
170 171 170 176 180 184 189 182 186 187 191 188 199 203 189 181 197 183 191 175 173 172 171 168 160 159 179 159 159 160 173 166 165 167 169 168 167 172
158 162 168 170 168 171 177 180 181 185 189 189 186 173 179 183 205 187 194 167 176 164 171 172 167 159 147 156 156 163 167 162 165 166 169 165 165 171
157 156 159 159 164 171 172 176 181 183 186 190 194 162 180 199 194 181 195 179 178 169 178 172 164 153 157 154 161 157 160 167 165 166 161 157 165 178
147 155 152 155 151 164 172 179 183 185 190 188 180 165 185 205 180 182 192 186 180 186 169 176 161 162 159 159 152 157 168 163 169 164 166 159 174 181
138 135 152 156 160 162 173 176 171 179 180 175 175 181 187 191 171 182 180 187 179 169 176 174 174 174 167 162 158 163 166 168 168 171 168 167 170 176
138 143 151 159 166 161 169 168 167 171 171 181 192 202 188 179 177 187 180 182 183 177 180 175 182 174 166 165 166 169 171 168 172 168 164 163 177 195
128 144 148 161 167 157 164 166 162 173 188 199 187 194 175 158 174 175 184 184 190 180 176 186 185 170 173 176 170 171 177 179 173 175 175 173 178 189
121 132 142 153 158 158 163 169 171 191 187 187 184 169 165 174 166 173 186 186 179 174 177 172 166 172 171 165 176 174 184 183 179 184 190 199 200 204
134 139 143 147 155 163 167 176 185 179 180 174 170 172 167 181 178 171 175 167 159 173 172 164 174 177 173 169 174 187 186 185 187 192 201 207 218 221
126 133 137 138 143 149 160 162 162 170 170 166 175 177 184 187 183 167 174 184 180 169 163 171 178 186 186 181 182 185 188 191 192 205 203 209 209 213
112 122 129 134 142 148 154 160 164 160 159 171 172 185 182 173 177 170 171 169 171 173 173 172 179 188 192 187 187 187 189 191 204 212 215 210 213 223
114 112 121 132 137 145 146 147 148 152 165 171 176 174 178 174 174 168 172 173 169 171 175 175 180 190 198 192 203 201 196 196 196 202 203 216 220 224
132 125 132 129 130 134 139 139 142 142 155 155 162 158 162 161 168 175 172 171 169 170 177 180 185 188 196 199 204 207 205 201 197 206 212 224 229 227
Height
1469 1474 1479 1484 1489 1493 1496 1500 1504 1507 1508 1509 1510 1511 1513 1515 1517 1519 1522 1524 1525 1527 1529 1534 1541 1549 1554 1559 1567 1573 1580 1585 1588 1592 1596 1601 1606 1610
1460 1467 1472 1478 1483 1488 1492 1497 1501 1504 1505 1507 1508 1511 1512 1514 1516 1518 1520 1522 1523 1524 1527 1532 1539 1546 1551 1558 1566 1573 1577 1585 1588 1593 1598 1602 1606 1610
1452 1458 1466 1471 1478 1482 1488 1493 1498 1501 1504 1505 1505 1509 1511 1513 1515 1517 1518 1519 1521 1523 1526 1530 1538 1545 1550 1558 1565 1571 1579 1585 1590 1593 1598 1603 1607 1611
1445 1450 1458 1465 1472 1478 1484 1490 1495 1498 1503 1504 1504 1508 1511 1513 1515 1515 1516 1518 1519 1522 1524 1529 1536 1543 1551 1557 1566 1566 1577 1583 1589 1594 1599 1603 1608 1611
1438 1445 1452 1458 1466 1474 1480 1486 1492 1496 1501 1503 1503 1507 1510 1512 1513 1514 1516 1517 1517 1520 1523 1529 1537 1544 1550 1557 1563 1566 1576 1584 1589 1595 1600 1604 1608 1612
1432 1440 1447 1454 1462 1469 1476 1483 1489 1493 1498 1501 1503 1505 1509 1511 1513 1514 1516 1516 1518 1520 1524 1531 1538 1543 1549 1558 1563 1567 1577 1584 1589 1595 1600 1604 1608 1612
1427 1432 1440 1450 1459 1466 1473 1480 1486 1491 1496 1499 1502 1505 1508 1510 1511 1513 1515 1517 1518 1520 1526 1532 1537 1544 1550 1556 1564 1571 1575 1583 1589 1595 1599 1604 1609 1613
1424 1429 1435 1445 1455 1464 1471 1478 1484 1489 1494 1498 1501 1504 1507 1509 1511 1513 1515 1515 1518 1521 1526 1531 1538 1545 1552 1559 1565 1569 1574 1584 1589 1595 1600 1605 1609 1613
1422 1428 1434 1441 1449 1460 1468 1476 1482 1488 1494 1496 1499 1503 1505 1507 1511 1513 1514 1517 1519 1521 1524 1529 1537 1544 1553 1561 1566 1570 1575 1584 1589 1595 1600 1605 1610 1614
1422 1427 1432 1439 1447 1458 1467 1474 1480 1487 1491 1495 1498 1502 1504 1505 1507 1511 1513 1516 1520 1523 1529 1532 1540 1545 1554 1561 1566 1572 1579 1585 1590 1595 1600 1605 1610 1613
1424 1429 1434 1439 1447 1457 1465 1472 1480 1486 1490 1495 1499 1501 1503 1505 1507 1509 1511 1514 1520 1525 1528 1534 1539 1546 1554 1560 1568 1576 1581 1585 1592 1597 1601 1606 1610 1613
1426 1431 1436 1442 1449 1457 1466 1473 1479 1485 1490 1495 1499 1500 1502 1505 1507 1508 1512 1512 1519 1525 1529 1535 1540 1547 1553 1562 1570 1577 1583 1589 1593 1598 1602 1606 1609 1612
1428 1433 1437 1445 1452 1461 1470 1475 1481 1486 1491 1495 1495 1499 1502 1505 1506 1508 1513 1518 1521 1524 1529 1536 1541 1545 1554 1562 1570 1577 1584 1589 1594 1598 1602 1606 1609 1613
1431 1435 1441 1448 1456 1464 1471 1477 1482 1488 1491 1494 1495 1499 1502 1505 1507 1511 1514 1518 1525 1530 1534 1540 1542 1548 1553 1562 1568 1577 1584 1590 1594 1598 1602 1605 1610 1613
1437 1442 1448 1455 1461 1468 1474 1479 1483 1488 1492 1494 1497 1501 1503 1505 1506 1511 1515 1521 1525 1529 1538 1542 1546 1552 1556 1562 1569 1577 1583 1589 1594 1598 1602 1606 1610 1613
1446 1450 1455 1461 1467 1472 1477 1482 1487 1490 1494 1497 1500 1501 1503 1506 1509 1514 1518 1523 1529 1534 1539 1544 1550 1555 1561 1569 1573 1580 1586 1589 1595 1599 1601 1606 1610 1612
1453 1457 1461 1466 1471 1476 1480 1485 1489 1493 1495 1498 1500 1502 1505 1508 1512 1516 1520 1524 1529 1534 1540 1547 1550 1558 1564 1570 1576 1583 1587 1591 1595 1599 1603 1605 1607 1608
1460 1463 1468 1473 1476 1479 1483 1488 1491 1494 1496 1499 1501 1504 1508 1512 1514 1518 1522 1525 1529 1534 1541 1546 1553 1560 1567 1575 1582 1584 1588 1591 1595 1599 1602 1604 1606 1608
1468 1471 1475 1478 1481 1484 1487 1491 1493 1495 1498 1500 1503 1506 1511 1514 1518 1521 1525 1529 1533 1540 1545 1551 1556 1563 1568 1573 1579 1584 1586 1590 1594 1597 1601 1603 1605 1606
1475 1477 1480 1483 1486 1489 1492 1494 1496 1498 1500 1503 1506 1509 1512 1517 1519 1523 1528 1532 1536 1542 1547 1553 1559 1564 1568 1572 1576 1582 1587 1590 1593 1596 1598 1601 1603 1605
1481 1484 1486 1488 1491 1493 1495 1497 1498 1500 1503 1506 1508 1511 1514 1518 1521 1526 1528 1534 1539 1544 1550 1555 1561 1567 1571 1575 1579 1583 1586 1589 1593 1596 1597 1600 1601 1602
1489 1489 1491 1493 1495 1497 1498 1500 1502 1504 1507 1508 1510 1513 1517 1521 1525 1529 1534 1538 1542 1547 1553 1558 1562 1567 1571 1574 1577 1580 1583 1586 1590 1593 1595 1597 1598 1599
1494 1495 1496 1497 1499 1501 1503 1504 1505 1507 1508 1511 1513 1517 1521 1525 1529 1533 1538 1541 1546 1550 1555 1558 1562 1567 1571 1574 1577 1579 1581 1584 1586 1590 1592 1594 1596 1597